Date,TemperatureHighF,TemperatureAvgF,TemperatureLowF,DewpointHighF,DewpointAvgF,DewpointLowF,HumidityHigh,HumidityAvg,HumidityLow,PressureMaxIn,PressureMinIn,WindSpeedMaxMPH,WindSpeedAvgMPH,GustSpeedMaxMPH,PrecipitationSumIn
2013-1-1,26.6,18.6,12.0,20.5,11.9,5.5,94,76,46,30.27,30.13,0,0,0,0.00
2013-1-2,35.6,25.2,15.4,24.4,18.5,9.5,90,76,61,30.22,30.07,9,3,14,0.01
2013-1-3,39.4,29.0,21.0,27.5,23.0,17.8,95,79,53,30.37,30.21,6,2,9,0.05
2013-1-4,43.7,30.9,19.0,27.3,23.3,16.9,97,75,50,30.36,30.20,9,3,14,0.01
2013-1-5,45.1,37.4,30.7,33.4,28.8,23.9,79,71,60,30.20,30.03,12,5,14,0.00
2013-1-6,43.3,30.2,22.1,24.3,20.4,17.7,85,68,36,30.35,30.14,10,3,11,0.00
2013-1-7,51.1,38.9,30.4,29.2,23.5,20.6,68,55,33,30.24,30.01,10,4,17,0.00
2013-1-8,56.8,44.2,35.2,35.6,30.9,27.6,78,61,35,30.16,29.93,9,4,16,0.00
2013-1-9,57.0,42.8,29.3,34.8,30.9,27.0,92,66,36,30.37,30.17,6,1,8,0.00
2013-1-10,50.0,43.8,38.3,49.7,39.5,26.1,99,87,45,30.30,29.70,13,7,18,0.19
2013-1-11,59.5,54.7,49.8,50.3,47.7,40.7,99,79,52,29.72,29.55,14,6,17,0.01
2013-1-12,57.6,30.3,21.6,38.0,17.3,10.8,82,59,27,30.07,29.71,10,6,16,0.00
2013-1-13,29.8,19.3,12.6,10.8,8.3,5.3,76,63,38,30.31,30.02,8,4,13,0.00
2013-1-14,34.9,20.0,9.5,12.8,7.5,1.5,87,61,24,30.46,30.31,6,1,9,0.00
2013-1-15,37.2,22.8,13.5,14.3,8.7,1.4,82,58,23,30.36,30.14,5,1,8,0.00
2013-1-16,47.8,32.5,20.8,29.9,19.7,11.0,80,60,41,30.15,29.99,10,3,14,0.00
2013-1-17,53.6,37.4,28.8,30.9,27.8,22.5,96,71,34,30.44,30.16,8,2,13,0.00
2013-1-18,59.0,45.3,34.7,31.4,28.7,27.1,76,55,30,30.36,30.00,16,8,24,0.00
2013-1-19,61.3,49.1,42.4,32.6,29.1,21.7,66,48,23,30.22,29.94,11,6,17,0.00
2013-1-20,42.1,29.1,20.1,28.6,11.9,6.6,68,49,35,30.36,30.22,9,5,13,0.00
2013-1-21,21.9,17.9,13.8,11.5,5.7,-3.3,83,60,32,30.40,30.32,7,3,11,0.00
2013-1-22,30.0,20.3,13.1,9.9,5.5,1.7,69,53,34,30.37,30.22,8,4,12,0.00
2013-1-23,50.7,31.3,15.3,22.0,15.9,7.8,76,55,29,30.38,30.14,10,3,15,0.00
2013-1-24,25.7,19.8,9.0,15.1,5.5,-0.3,68,54,39,30.46,30.13,14,8,20,0.00
2013-1-25,51.1,33.7,20.8,20.7,15.4,10.1,69,48,26,30.21,30.10,7,2,10,0.00
2013-1-26,57.6,42.2,31.1,26.5,23.1,19.6,69,49,23,30.25,30.05,8,4,11,0.00
2013-1-27,62.1,50.9,40.1,56.5,45.7,23.7,95,83,41,30.06,29.72,12,7,17,0.09
2013-1-28,76.3,66.0,58.5,62.5,58.4,54.9,95,78,49,29.84,29.63,12,5,24,0.00
2013-1-29,68.2,48.7,35.4,63.0,46.9,35.2,99,94,77,29.66,29.42,14,6,23,1.09
2013-1-30,35.6,27.1,22.5,35.4,22.9,14.9,99,84,68,29.94,29.47,13,7,27,0.02
2013-1-31,24.6,18.1,9.1,19.7,8.8,0.2,84,67,49,30.43,29.90,12,5,22,0.00
2013-2-1,27.1,18.1,6.3,14.3,6.4,-0.8,75,61,44,30.43,30.11,7,3,11,0.00
2013-2-2,49.3,37.0,26.2,34.1,25.7,14.3,72,64,53,30.18,30.05,10,4,15,0.00
2013-2-3,51.1,40.9,32.0,32.7,23.2,13.2,75,52,25,30.25,29.83,8,4,11,0.00
2013-2-4,47.8,39.1,23.5,30.8,26.9,21.3,92,63,44,29.96,29.76,10,4,16,0.00
2013-2-5,61.2,39.3,23.5,32.1,27.0,21.6,94,66,29,30.07,29.86,8,3,13,0.00
2013-2-6,63.1,48.6,34.5,40.2,33.6,26.8,77,58,34,30.08,29.85,10,5,16,0.00
2013-2-7,51.1,43.5,31.8,47.6,39.8,27.7,99,87,64,30.16,29.83,12,4,17,0.74
2013-2-8,45.7,34.2,29.5,30.2,27.9,26.3,92,79,51,30.30,30.16,8,5,14,0.00
2013-2-9,50.2,37.1,29.1,38.2,31.6,27.3,96,82,54,30.19,29.73,11,8,17,0.05
2013-2-10,52.9,45.0,37.0,48.5,34.9,23.4,99,71,42,29.88,29.45,20,11,34,0.04
2013-2-11,49.8,38.1,30.0,26.1,23.7,20.9,75,57,32,30.14,29.88,12,5,18,0.00
2013-2-12,43.5,34.5,24.8,28.5,23.8,20.4,87,66,41,30.14,29.92,4,1,7,0.00
2013-2-13,58.3,41.9,28.0,27.0,23.8,17.6,84,53,21,29.93,29.77,11,4,17,0.00
2013-2-14,50.9,42.9,35.1,31.6,26.5,21.5,75,53,34,30.14,29.81,11,4,17,0.00
2013-2-15,39.7,30.5,21.6,26.7,15.0,-0.3,96,56,20,30.33,30.14,10,5,17,0.00
2013-2-16,29.1,26.2,16.9,24.3,20.1,15.3,96,78,68,30.27,30.23,4,3,6,0.00
2013-2-17,29.1,29.1,29.1,19.9,19.9,19.9,68,68,68,30.24,30.24,4,4,6,0.00
2013-2-18,55.0,32.0,28.2,54.2,22.9,17.2,97,69,61,30.38,29.94,13,6,21,0.01
2013-2-19,37.0,27.5,21.7,17.7,7.6,-10.3,77,47,13,30.64,30.38,11,5,20,0.00
2013-2-20,24.4,20.5,15.1,14.5,7.7,0.6,70,57,42,30.68,30.48,12,7,17,0.00
2013-2-21,25.9,23.0,20.1,25.7,20.4,13.7,99,90,69,30.48,30.06,22,10,27,0.00
2013-2-22,32.0,24.5,17.8,24.6,20.2,14.6,99,84,57,30.38,30.08,10,5,13,0.01
2013-2-23,39.4,25.0,11.5,20.4,16.6,9.9,95,73,42,30.37,30.25,7,2,10,0.00
2013-2-24,49.3,34.5,21.0,27.1,23.3,18.0,91,66,40,30.32,30.21,12,5,16,0.00
2013-2-25,37.9,33.7,30.0,33.8,28.1,24.2,99,80,64,30.27,29.97,16,8,22,0.04
2013-2-26,33.1,32.0,30.4,32.7,31.7,30.1,99,99,94,30.15,29.88,13,1,19,0.01
2013-2-27,36.7,31.8,28.4,30.2,28.3,25.5,99,87,67,30.35,30.13,4,0,6,0.01
2013-2-28,34.2,30.8,27.7,28.5,26.1,24.1,87,83,74,30.50,30.34,7,3,13,0.00
2013-3-1,34.5,28.1,25.3,25.0,22.6,20.0,85,80,65,30.60,30.47,9,4,15,0.00
2013-3-2,40.5,28.9,22.5,21.5,18.7,15.6,86,67,39,30.65,30.48,6,3,11,0.04
2013-3-3,46.2,35.8,25.0,27.7,24.0,19.4,80,63,43,30.48,30.06,10,5,14,0.00
2013-3-4,55.4,42.0,35.2,34.0,30.4,27.5,94,64,41,30.25,29.98,10,6,14,0.00
2013-3-5,38.3,32.5,27.9,34.0,22.2,16.6,98,66,50,30.64,30.25,13,8,21,0.04
2013-3-6,46.4,31.7,23.4,22.3,19.5,17.3,79,62,34,30.72,30.58,9,4,16,0.00
2013-3-7,50.4,36.3,24.1,29.5,24.7,19.5,83,64,37,30.59,30.43,11,7,14,0.00
2013-3-8,57.4,46.7,36.9,39.3,34.2,28.4,72,62,47,30.52,30.28,14,7,17,0.00
2013-3-9,59.7,51.8,46.0,55.7,46.9,38.9,99,84,61,30.29,29.91,9,4,16,0.39
2013-3-10,54.9,52.7,51.1,54.6,52.5,50.8,99,99,99,29.93,29.90,4,2,7,0.00
2013-3-18,55.8,46.0,35.2,24.0,18.3,13.9,48,34,21,30.36,30.19,12,6,21,0.01
2013-3-19,39.2,34.4,28.0,36.6,25.4,10.3,99,72,31,30.55,30.35,6,2,9,0.01
2013-3-20,41.7,31.8,24.4,34.8,13.0,-2.5,99,51,15,30.68,30.43,12,6,20,0.00
2013-3-21,29.3,26.6,23.7,27.1,17.9,8.9,93,71,48,30.42,30.21,12,6,17,0.00
2013-3-22,33.3,31.2,28.9,30.8,29.2,26.8,99,92,86,30.31,30.24,10,6,13,0.00
2013-3-23,39.2,34.0,32.4,32.7,30.3,26.5,99,87,62,30.34,30.16,15,5,17,0.00
2013-3-24,32.2,28.7,23.4,31.9,27.3,19.3,99,94,83,30.37,30.12,0,0,0,0.00
2013-3-25,36.7,27.8,21.4,28.1,23.5,18.3,96,84,64,30.62,30.35,9,2,15,0.00
2013-3-26,42.4,30.6,20.5,24.2,21.3,18.9,96,71,39,30.69,30.58,8,2,11,0.11
2013-3-27,50.7,37.6,24.3,32.0,25.9,19.3,85,64,40,30.60,30.49,13,6,16,0.01
2013-3-28,67.8,51.5,36.5,42.2,35.4,31.5,83,57,30,30.53,30.42,8,4,11,0.00
2013-3-29,69.4,55.7,41.5,42.4,38.4,30.6,88,57,25,30.50,30.39,10,5,15,0.00
2013-3-30,69.1,57.1,50.5,58.2,50.8,43.3,98,80,54,30.38,30.16,13,4,14,0.02
2013-3-31,68.0,56.2,44.6,50.8,38.7,22.0,99,58,22,30.28,30.22,10,3,16,0.00
2013-4-1,50.7,41.9,33.6,34.4,18.9,1.1,81,44,14,30.58,30.28,16,6,18,0.00
2013-4-2,53.1,39.7,29.1,22.0,17.9,11.6,65,43,20,30.63,30.53,9,5,13,0.00
2013-4-3,51.1,42.4,33.1,25.1,21.0,14.0,68,44,27,30.66,30.53,12,6,15,0.00
2013-4-4,68.4,50.7,36.7,28.6,21.4,6.8,62,36,10,30.53,30.35,7,2,11,0.00
2013-4-5,74.1,57.4,39.6,40.4,35.4,28.6,73,46,25,30.47,30.16,9,4,16,0.00
2013-4-6,78.3,64.7,57.2,48.1,42.4,33.6,59,46,20,30.17,29.96,16,8,24,0.00
2013-4-7,75.2,61.9,50.2,57.5,46.8,40.9,99,61,31,30.17,29.96,11,3,18,0.54
2013-4-8,75.7,64.8,54.0,63.3,59.7,52.7,99,84,63,30.04,29.98,9,4,23,0.40
2013-4-9,73.6,68.1,57.7,65.6,61.2,56.3,99,79,70,30.08,29.95,12,6,27,0.20
2013-4-10,56.3,43.0,38.3,55.2,42.7,38.0,99,99,95,30.23,30.02,13,5,30,0.81
2013-4-11,41.4,36.9,33.8,37.9,30.1,27.0,99,78,58,30.11,30.01,12,7,18,0.01
2013-4-12,54.5,41.1,32.2,33.1,29.6,26.0,87,65,39,30.32,30.06,10,6,15,0.00
2013-4-13,65.8,50.8,33.1,44.8,37.3,30.5,94,63,39,30.36,30.03,12,4,17,0.00
2013-4-14,75.7,63.7,54.3,56.9,47.2,30.3,80,56,33,30.02,29.80,16,7,28,0.04
2013-4-15,57.4,49.7,44.4,44.2,36.1,30.4,93,61,37,30.29,30.02,10,4,16,0.08
2013-4-16,47.3,44.4,41.5,37.9,33.9,29.2,80,67,52,30.44,30.30,14,10,21,0.00
2013-4-17,51.6,48.3,45.3,51.4,46.8,37.5,99,95,74,30.37,29.94,13,6,17,0.44
2013-4-18,47.7,40.1,36.7,47.4,36.7,27.5,99,88,68,30.23,29.88,16,8,18,0.21
2013-4-19,54.1,42.4,32.4,27.8,23.4,13.0,79,51,21,30.40,30.19,14,7,23,0.00
2013-4-20,57.2,45.4,29.5,33.7,27.9,23.1,80,52,32,30.55,30.40,13,6,18,0.00
2013-4-21,70.0,58.8,49.1,43.3,37.9,30.9,66,47,29,30.52,30.40,13,6,18,0.00
2013-4-22,68.0,57.7,48.9,51.0,43.1,39.4,93,60,39,30.44,30.21,12,4,15,0.01
2013-4-23,47.8,36.6,33.8,46.2,35.4,32.1,99,96,77,30.48,30.30,15,7,24,0.77
2013-4-24,57.2,43.0,29.7,34.5,28.4,21.0,99,62,28,30.56,30.44,15,4,18,0.01
2013-4-25,72.5,56.1,36.5,40.1,34.0,25.7,88,49,19,30.60,30.44,8,4,14,0.00
2013-4-26,59.5,52.4,48.4,49.8,46.8,37.9,99,83,48,30.52,30.44,10,5,16,0.44
2013-4-27,55.6,50.6,47.3,51.2,48.8,47.0,99,94,81,30.49,30.30,7,4,10,0.60
2013-4-28,78.8,60.7,43.0,56.5,50.2,42.7,99,73,35,30.30,30.08,9,3,13,0.00
2013-4-29,87.6,72.8,59.2,63.5,58.4,52.5,84,63,39,30.12,29.93,11,6,17,0.00
2013-4-30,87.1,76.1,67.5,57.9,52.4,46.5,70,46,27,30.13,29.96,12,6,20,0.00
2013-5-1,85.8,68.0,43.0,60.5,52.1,39.7,90,58,36,30.47,30.13,12,5,20,0.02
2013-5-2,42.6,37.3,32.7,40.7,36.6,32.5,99,97,90,30.67,30.47,16,7,25,0.56
2013-5-3,40.1,37.0,33.3,36.1,34.5,33.0,99,91,78,30.60,30.20,11,6,20,0.47
2013-5-4,50.0,41.7,33.1,45.1,38.8,32.8,99,90,72,30.32,30.13,9,4,14,0.17
2013-5-5,60.1,50.8,45.3,51.0,48.3,45.1,99,92,72,30.41,30.30,9,4,14,0.01
2013-5-6,72.0,57.8,50.7,55.6,52.0,49.7,98,83,54,30.40,30.31,6,3,10,0.00
2013-5-7,82.4,64.3,48.2,58.9,49.5,40.8,99,66,24,30.38,30.26,5,1,8,0.00
2013-5-8,79.0,66.3,57.7,61.0,56.3,50.7,95,72,47,30.31,30.19,9,3,13,0.07
2013-5-9,78.6,66.0,58.6,62.8,59.4,54.6,99,82,45,30.24,30.14,8,2,14,0.11
2013-5-10,70.2,59.1,51.3,57.7,52.5,46.0,99,81,42,30.34,30.20,7,3,12,0.01
2013-5-11,69.6,58.0,45.7,50.7,33.1,14.1,98,50,12,30.54,30.34,19,5,23,0.00
2013-5-12,71.6,54.9,35.8,41.2,26.6,11.7,84,42,10,30.57,30.42,6,2,8,0.00
2013-5-13,82.6,65.3,47.5,57.2,47.1,41.1,83,55,29,30.46,30.24,7,3,12,0.00
2013-5-14,96.4,80.2,66.6,57.3,46.7,28.9,70,37,10,30.24,30.08,11,5,21,0.00
2013-5-15,91.6,77.4,68.4,68.0,59.5,53.3,84,56,33,30.19,30.10,6,4,14,0.00
2013-5-16,84.0,71.5,60.3,65.4,61.8,59.2,99,74,44,30.19,30.08,6,2,11,0.00
2013-5-17,79.7,69.0,60.4,64.2,61.7,59.6,99,79,54,30.24,30.15,5,2,7,0.00
2013-5-18,87.8,75.0,62.6,72.7,66.7,60.9,96,77,52,30.23,30.02,8,4,13,0.00
2013-5-19,85.3,71.4,62.4,73.0,65.3,60.2,99,82,59,30.14,29.87,14,4,22,0.77
2013-5-20,83.8,69.9,62.2,68.8,64.1,60.0,97,83,53,30.05,29.90,8,3,11,0.01
2013-5-21,79.9,67.8,57.4,64.5,52.7,48.5,88,60,35,30.08,29.97,8,3,13,0.00
2013-5-22,70.2,62.7,55.4,53.1,51.3,49.1,85,67,53,30.25,30.03,8,3,11,0.00
2013-5-23,70.9,61.2,52.3,55.5,52.1,49.1,91,73,55,30.51,30.25,8,3,14,0.00
2013-5-24,74.8,62.8,49.5,56.3,49.8,45.9,99,66,37,30.60,30.42,11,4,16,0.00
2013-5-25,87.1,72.8,61.7,66.5,58.7,46.7,82,62,46,30.46,30.29,6,3,12,0.00
2013-5-26,87.6,77.2,68.5,70.2,67.6,65.3,93,73,53,30.35,30.17,7,3,15,0.00
2013-5-27,82.9,72.3,62.2,72.3,66.2,62.0,99,82,64,30.24,29.96,13,5,17,2.04
2013-5-28,79.9,75.2,72.1,74.6,69.5,67.1,95,82,73,30.11,29.94,6,3,13,0.05
2013-5-29,83.1,75.4,66.0,69.4,66.4,62.0,93,74,59,30.12,29.93,9,5,17,0.07
2013-5-30,77.4,65.4,61.9,65.9,63.6,61.6,99,94,66,30.05,29.91,8,3,12,1.32
2013-5-31,82.8,70.3,59.2,69.4,65.2,57.8,99,85,57,30.05,29.96,8,2,11,1.00
2013-6-1,73.4,66.5,61.2,68.0,56.9,50.1,98,72,49,30.28,29.98,8,3,13,0.00
2013-6-2,68.4,59.5,50.0,52.8,50.2,46.8,92,72,46,30.39,30.27,7,3,13,0.00
2013-6-3,76.1,62.3,46.8,57.9,52.3,46.2,99,72,46,30.37,30.18,7,3,10,0.00
2013-6-4,78.1,67.6,62.8,67.5,62.1,57.0,97,83,65,30.27,30.16,6,3,10,0.06
2013-6-5,68.0,64.5,62.2,66.7,63.5,61.4,99,96,90,30.27,30.20,6,2,13,0.08
2013-6-6,79.2,67.7,57.6,63.2,56.1,49.7,99,70,39,30.27,30.21,9,2,12,0.00
2013-6-7,79.7,65.7,53.4,58.1,52.9,48.1,99,67,35,30.31,30.21,6,2,10,0.00
2013-6-8,82.9,68.7,56.1,62.8,56.8,51.7,87,68,42,30.26,30.05,7,2,14,0.01
2013-6-9,84.6,71.6,62.2,64.9,59.5,48.6,99,71,30,30.15,30.06,8,3,14,0.43
2013-6-10,94.6,75.0,59.5,63.4,57.6,44.5,97,62,20,30.20,30.11,4,2,8,0.00
2013-6-11,99.5,84.5,72.3,71.0,64.8,55.9,90,56,24,30.18,30.08,8,4,12,0.01
2013-6-12,98.1,86.4,77.2,71.7,69.2,60.6,80,59,38,30.22,30.05,9,5,17,0.00
2013-6-13,90.5,74.7,63.1,64.1,59.6,55.2,87,61,33,30.36,30.22,13,3,17,0.00
2013-6-14,90.5,78.2,65.5,74.6,68.4,63.3,94,74,51,30.32,30.16,7,3,11,0.00
2013-6-15,95.9,77.2,67.5,76.0,70.1,65.2,99,81,37,30.32,30.18,9,3,20,1.37
2013-6-16,84.9,74.6,66.4,73.8,70.8,66.1,99,89,66,30.26,30.18,5,2,8,0.00
2013-6-17,86.0,73.7,66.0,75.0,69.6,65.8,99,88,66,30.29,30.18,5,2,12,0.25
2013-6-18,89.6,74.2,64.8,71.8,65.1,56.9,99,78,34,30.31,30.26,7,2,11,0.00
2013-6-19,93.4,77.2,65.3,70.2,65.8,40.5,99,71,16,30.32,29.82,5,2,12,0.00
2013-6-20,92.3,81.3,70.7,74.2,71.0,67.8,91,72,52,29.89,29.77,8,4,16,0.00
2013-6-21,95.7,84.3,77.0,75.8,72.6,70.2,86,69,45,29.86,29.78,8,4,14,0.00
2013-6-22,97.7,84.8,75.6,73.4,70.5,65.0,81,64,41,29.88,29.73,7,4,19,0.00
2013-6-23,93.4,82.6,74.5,75.7,72.0,68.7,89,71,47,29.84,29.65,10,3,14,0.00
2013-6-24,93.4,84.0,76.5,72.8,69.6,65.2,80,63,44,29.84,29.68,9,4,14,0.00
2013-6-25,92.1,82.1,74.3,75.2,71.2,68.4,97,71,51,29.77,29.61,10,4,14,0.12
2013-6-26,104.2,86.4,74.7,74.8,66.8,46.7,87,59,15,29.77,29.60,6,3,12,0.00
2013-6-27,90.7,77.5,70.0,77.0,70.6,65.5,99,80,59,29.90,29.71,12,2,17,0.15
2013-6-28,91.2,78.6,68.2,73.7,63.6,53.6,99,66,29,29.84,29.75,7,3,16,0.01
2013-6-29,86.4,75.1,64.2,61.5,57.9,50.4,81,57,30,29.78,29.69,11,5,18,0.00
2013-6-30,82.2,71.8,61.7,61.1,57.4,54.3,85,62,41,29.93,29.77,11,4,14,0.00
2013-7-1,86.2,72.3,60.4,57.8,52.6,44.0,84,54,25,30.00,29.93,11,4,17,0.00
2013-7-2,87.1,72.3,56.8,60.8,52.7,41.9,95,56,22,30.02,29.93,8,2,11,0.00
2013-7-3,92.5,72.3,60.4,62.8,56.0,42.8,99,64,20,29.97,29.87,10,2,14,0.27
2013-7-4,93.6,74.8,59.5,63.3,57.1,46.5,98,60,20,29.94,29.83,5,2,9,0.01
2013-7-5,93.7,79.8,66.4,63.3,60.4,56.3,79,54,29,29.89,29.77,6,3,11,0.00
2013-7-6,94.3,78.6,70.2,67.1,63.6,61.2,75,61,34,29.88,29.77,6,3,14,0.00
2013-7-7,96.6,83.5,72.7,69.9,66.6,63.3,81,59,35,29.87,29.80,6,3,13,0.02
2013-7-8,100.2,85.5,78.4,71.4,67.4,65.1,67,56,33,29.91,29.84,4,2,9,0.00
2013-7-9,103.8,89.6,79.2,75.8,71.1,67.3,74,56,31,29.89,29.73,7,3,11,0.00
2013-7-10,96.3,85.2,73.6,73.2,66.2,51.3,75,55,23,29.93,29.77,9,3,12,0.00
2013-7-11,88.9,77.2,69.8,64.8,60.1,54.0,75,58,32,29.97,29.86,7,3,10,0.00
2013-7-12,91.6,78.7,68.9,66.6,62.5,59.2,77,59,40,29.94,29.85,7,4,10,0.00
2013-7-13,91.0,79.8,70.7,68.9,63.2,57.9,67,57,43,29.93,29.84,6,3,11,0.00
2013-7-14,89.1,77.9,65.5,64.1,61.0,55.7,86,58,34,30.00,29.89,8,3,11,0.00
2013-7-15,92.1,79.7,70.9,70.8,67.8,62.1,90,69,44,30.07,29.99,6,3,9,0.00
2013-7-16,96.1,83.1,72.9,72.7,69.7,64.7,92,66,40,30.15,30.05,5,2,8,0.00
2013-7-17,94.5,83.5,73.0,73.6,71.1,69.0,91,68,44,30.19,30.06,4,1,4,0.02
2013-7-18,86.5,82.3,72.1,72.9,71.3,70.1,95,71,60,30.09,30.05,3,2,4,0.00
2013-7-19,86.5,86.5,84.6,71.1,70.9,65.4,60,60,50,30.05,29.93,3,2,4,0.00
2013-7-20,91.9,79.9,74.5,74.6,71.0,67.1,91,75,49,29.97,29.89,7,1,11,0.01
2013-7-21,93.4,79.8,71.2,74.4,70.0,66.8,95,74,44,29.96,29.83,4,2,7,0.00
2013-7-22,99.0,82.7,70.3,74.6,70.3,64.8,99,70,37,29.89,29.81,5,2,10,0.00
2013-7-23,88.9,80.7,73.6,74.4,69.2,63.7,93,69,53,29.97,29.83,8,3,12,0.00
2013-7-24,90.7,77.4,67.3,63.0,58.9,52.3,79,56,29,30.07,29.96,7,3,11,0.00
2013-7-25,89.1,73.9,67.1,71.6,65.2,60.5,99,77,41,30.12,30.03,5,1,8,0.31
2013-7-26,89.1,76.0,68.7,72.9,65.8,52.3,99,75,37,30.09,29.99,8,2,12,0.11
2013-7-27,82.0,68.2,55.9,57.6,52.4,46.3,95,60,31,30.14,30.01,7,2,12,0.00
2013-7-28,79.9,67.6,54.5,57.7,52.5,44.0,94,62,30,30.09,30.05,4,1,6,0.00
2013-7-29,70.7,66.5,60.4,70.4,64.0,56.9,99,92,68,30.11,29.99,7,3,9,0.63
2013-7-30,83.3,75.7,70.9,77.3,72.8,70.6,99,91,73,30.06,29.97,5,2,8,0.27
2013-7-31,89.1,77.0,69.4,73.1,68.5,63.6,99,78,45,30.11,30.03,5,2,9,0.00
2013-8-1,93.7,78.6,65.8,72.0,67.0,63.6,99,72,37,30.11,29.96,4,1,8,0.00
2013-8-2,87.3,76.6,65.5,75.0,71.5,65.2,99,85,63,30.00,29.86,5,2,7,0.27
2013-8-3,85.1,78.0,73.0,74.7,72.0,69.7,96,83,63,30.12,29.91,6,3,8,0.00
2013-8-4,76.6,71.6,68.0,73.0,67.6,61.4,99,88,72,30.16,30.02,6,3,9,0.24
2013-8-5,88.2,77.3,70.2,75.7,72.9,69.9,99,87,62,30.05,29.82,3,1,5,0.00
2013-8-6,92.8,80.1,70.2,76.8,74.0,69.9,99,83,52,29.89,29.81,6,2,9,0.69
2013-8-7,89.1,79.8,71.8,77.8,73.7,67.2,99,83,63,29.96,29.80,11,2,14,0.59
2013-8-8,75.6,72.1,69.1,68.3,66.6,64.5,94,83,74,30.03,29.90,8,3,13,0.00
2013-8-9,77.4,72.0,66.2,71.1,67.4,64.7,99,86,72,30.13,30.00,3,1,4,0.01
2013-8-10,87.6,73.7,64.2,66.2,63.6,57.3,99,74,38,30.20,30.09,6,2,8,0.01
2013-8-11,90.3,76.0,64.0,69.2,64.9,59.8,91,70,46,30.15,30.01,5,1,7,0.00
2013-8-12,88.0,75.6,66.6,72.6,69.5,66.3,99,83,54,30.05,29.96,8,2,12,1.32
2013-8-13,83.8,73.0,65.7,69.2,62.4,52.0,99,73,34,30.13,30.03,6,2,8,0.00
2013-8-14,82.2,70.3,62.6,63.0,58.9,55.6,91,69,41,30.21,30.11,5,3,7,0.00
2013-8-15,75.0,68.1,63.3,62.5,58.2,54.7,78,71,55,30.14,30.02,4,2,7,0.00
2013-8-16,80.1,68.6,60.4,58.9,57.0,55.3,88,68,46,30.18,30.08,8,2,9,0.00
2013-8-17,81.0,67.2,55.2,61.7,56.4,53.1,99,72,42,30.22,30.12,6,2,11,0.00
2013-8-18,86.0,70.7,57.0,64.2,60.3,56.5,99,73,41,30.19,30.07,5,1,8,0.00
2013-8-19,90.1,75.7,64.8,67.9,64.5,60.7,96,71,40,30.13,30.01,5,1,7,0.00
2013-8-20,93.2,79.5,68.9,68.5,65.8,61.7,86,65,38,30.08,29.99,5,2,10,0.00
2013-8-21,95.2,80.6,69.8,71.3,67.4,63.7,84,66,39,30.09,30.01,4,2,8,0.00
2013-8-22,92.7,81.2,72.5,72.3,70.0,68.0,88,70,46,30.11,30.02,3,1,4,0.00
2013-8-23,95.0,81.2,70.7,76.4,70.2,63.7,99,73,38,30.11,30.02,6,2,8,0.00
2013-8-24,93.9,82.5,74.3,75.2,71.1,68.5,89,70,44,30.15,30.06,4,2,8,0.00
2013-8-25,98.1,83.1,72.9,74.6,71.0,68.4,91,69,39,30.22,30.12,6,2,7,0.00
2013-8-26,98.4,84.8,75.0,72.2,70.5,67.4,87,65,37,30.18,30.06,7,3,10,0.00
2013-8-27,98.4,84.5,75.7,71.7,66.8,60.4,80,58,32,30.08,29.99,6,3,11,0.00
2013-8-28,96.8,82.5,71.2,72.1,69.0,66.2,90,66,39,30.07,30.01,6,2,10,0.00
2013-8-29,98.6,85.4,75.2,74.6,71.6,67.2,89,66,38,30.06,29.96,6,1,7,0.00
2013-8-30,104.7,89.2,79.0,73.2,68.2,58.3,75,53,22,29.99,29.85,5,2,10,0.00
2013-8-31,93.6,84.2,74.7,78.9,72.8,66.2,94,70,41,29.89,29.81,6,1,8,0.00
2013-9-1,89.1,77.9,68.9,76.5,70.4,62.6,99,80,51,29.97,29.78,15,3,27,0.98
2013-9-2,87.3,72.4,62.2,63.7,61.0,56.2,98,70,38,30.07,29.97,5,2,10,0.00
2013-9-3,91.0,72.3,57.9,62.8,57.8,48.2,99,66,23,30.13,30.03,4,1,6,0.00
2013-9-4,90.5,73.9,60.3,65.8,60.6,54.2,95,67,30,30.18,30.08,3,1,6,0.00
2013-9-5,91.0,75.6,63.0,66.7,61.6,57.1,93,65,32,30.22,30.11,4,1,8,0.00
2013-9-6,92.8,78.6,68.4,66.8,64.5,62.3,85,64,38,30.15,29.99,5,2,8,0.00
2013-9-7,76.5,73.0,72.5,65.2,64.7,63.5,77,75,66,30.01,29.99,4,2,5,0.00
2013-9-8,105.3,81.8,72.5,69.2,65.0,59.6,77,62,23,30.01,29.86,4,2,8,0.00
2013-9-9,99.7,86.7,78.8,67.2,62.9,55.6,63,47,24,30.02,29.93,6,3,11,0.00
2013-9-10,97.3,84.3,73.9,67.1,64.4,61.1,74,53,31,30.13,30.01,7,3,12,0.00
2013-9-11,99.9,83.2,71.8,66.2,61.8,54.6,76,52,23,30.18,30.07,5,2,8,0.00
2013-9-12,88.5,78.1,72.0,72.5,64.3,44.2,95,66,36,30.20,30.11,8,3,13,0.00
2013-9-13,79.5,67.4,57.2,53.2,48.8,43.7,81,53,30,30.25,30.12,7,3,11,0.00
2013-9-14,81.3,67.7,55.0,53.3,50.1,47.5,77,55,35,30.17,30.01,6,2,8,0.00
2013-9-15,89.1,72.5,65.3,68.9,60.8,52.9,94,68,45,30.20,30.00,9,3,13,0.06
2013-9-16,64.4,60.6,59.4,62.9,59.9,58.8,99,98,94,30.31,30.19,10,5,13,0.25
2013-9-17,72.9,65.9,61.5,70.5,65.3,61.0,99,98,89,30.24,30.03,6,2,8,0.45
2013-9-18,91.8,77.7,67.3,74.0,69.8,67.0,99,79,50,30.03,29.85,7,3,12,0.00
2013-9-19,95.9,78.9,67.3,71.2,68.4,63.1,99,74,34,29.98,29.78,12,4,24,2.09
2013-9-20,71.6,63.2,52.7,67.2,54.5,47.4,99,76,44,30.12,29.96,6,3,11,0.01
2013-9-21,78.6,61.1,48.4,54.5,48.8,39.1,99,70,26,30.10,29.97,4,1,7,0.00
2013-9-22,79.9,64.9,54.5,53.2,50.4,46.6,83,62,33,30.05,29.92,5,2,8,0.00
2013-9-23,78.1,65.9,54.3,56.3,53.2,51.3,91,66,41,30.00,29.84,7,3,14,0.00
2013-9-24,69.6,65.1,59.5,61.1,58.2,55.5,99,79,65,29.91,29.82,7,2,9,0.00
2013-9-25,82.8,66.6,55.4,64.4,60.7,55.1,99,83,50,29.95,29.87,5,2,8,0.00
2013-9-26,86.9,72.8,61.7,64.9,61.3,58.5,96,70,39,29.98,29.89,6,3,11,0.00
2013-9-27,89.8,76.3,68.2,65.7,62.7,59.6,83,65,38,30.03,29.91,6,4,11,0.00
2013-9-28,73.0,64.5,53.4,67.7,60.2,53.2,99,87,69,30.14,29.86,7,3,11,0.41
2013-9-29,78.4,59.9,47.8,59.3,51.2,47.0,99,78,34,30.16,30.00,4,1,6,0.00
2013-9-30,82.2,64.5,50.7,62.0,56.6,50.5,99,78,44,30.01,29.87,6,1,8,0.00
2013-10-1,87.6,70.6,61.0,67.4,63.5,56.6,99,80,46,30.02,29.90,4,1,7,0.00
2013-10-2,87.1,73.0,64.6,72.9,67.9,63.4,99,85,52,30.07,29.92,4,1,8,0.00
2013-10-3,88.3,74.5,64.0,73.2,69.1,62.6,99,85,58,29.98,29.77,7,3,11,0.13
2013-10-4,89.2,76.6,66.4,72.7,68.8,64.2,99,79,49,29.93,29.77,10,4,19,0.51
2013-10-5,66.2,55.4,48.0,65.9,41.4,36.2,99,61,38,30.07,29.92,8,4,12,0.02
2013-10-6,63.9,52.0,43.0,46.1,40.8,35.1,84,66,44,30.05,29.89,9,4,16,0.00
2013-10-7,77.2,56.0,41.5,48.1,44.0,39.0,97,69,28,30.19,30.04,4,1,6,0.00
2013-10-8,80.6,63.3,51.8,52.5,47.1,41.6,81,59,25,30.15,30.05,6,2,12,0.00
2013-10-9,79.0,63.4,52.9,52.3,49.0,45.2,82,62,32,30.14,30.05,5,2,8,0.00
2013-10-10,81.1,66.3,52.2,59.8,52.7,48.3,89,64,38,30.11,29.91,6,2,8,0.00
2013-10-11,75.9,67.8,58.1,66.2,60.7,53.3,95,79,53,29.92,29.82,7,3,12,0.12
2013-10-12,61.2,57.1,51.8,60.5,50.9,44.8,99,80,70,30.10,29.89,6,3,11,0.00
2013-10-13,70.7,57.3,45.5,44.6,38.9,31.8,92,55,24,30.44,30.30,12,3,12,0.00
2013-10-14,68.4,60.3,53.4,60.7,49.2,34.9,96,69,44,30.32,29.92,10,5,15,0.05
2013-10-15,64.0,55.4,47.5,59.6,46.8,39.4,99,75,42,30.12,29.91,7,4,12,0.09
2013-10-16,63.0,51.2,44.2,45.4,41.1,39.0,84,70,43,30.16,30.03,5,2,9,0.01
2013-10-17,70.2,53.3,42.3,46.0,42.0,32.8,95,69,30,30.07,29.94,49,3,49,0.00
2013-10-18,48.7,40.8,36.7,41.5,38.1,35.1,99,90,71,30.19,30.07,6,2,9,0.21
2013-10-19,64.0,46.3,34.2,41.0,36.2,31.7,99,73,31,30.14,29.94,7,3,12,0.00
2013-10-20,72.5,56.7,46.9,44.2,39.5,33.7,77,55,24,29.98,29.84,5,2,12,0.02
2013-10-21,60.1,48.1,41.4,45.0,32.5,22.3,78,57,25,30.17,29.99,6,3,11,0.00
2013-10-22,62.4,50.9,39.7,43.2,35.8,31.4,74,57,39,30.15,29.96,10,4,16,0.00
2013-10-23,51.4,42.6,32.0,34.2,30.4,26.3,88,64,40,30.22,30.09,4,1,7,0.00
2013-10-24,53.1,42.0,31.6,34.5,25.3,10.6,81,56,18,30.48,30.21,8,3,14,0.00
2013-10-25,59.9,43.3,29.1,26.7,19.1,1.9,81,46,10,30.51,30.19,6,2,10,0.00
2013-10-26,63.7,50.1,36.5,38.8,29.3,14.6,70,48,16,30.23,30.12,7,3,10,0.00
2013-10-27,66.7,46.3,30.7,34.4,23.0,8.1,85,49,10,30.22,30.00,4,1,8,0.00
2013-10-28,69.8,53.2,41.2,47.4,37.8,25.2,78,57,37,30.19,30.04,4,2,8,0.00
2013-10-29,64.8,57.3,51.6,64.5,55.5,45.3,99,94,73,30.19,29.99,6,3,8,0.84
2013-10-30,69.1,65.9,62.2,68.5,65.3,61.4,99,98,79,30.02,29.77,7,3,14,1.26
2013-10-31,62.6,51.4,47.3,62.3,49.3,42.4,99,93,72,29.79,29.62,7,2,10,0.91
2013-11-1,61.3,50.5,42.1,42.4,36.3,28.0,83,61,28,30.03,29.70,10,3,16,0.00
2013-11-2,58.3,46.3,39.0,34.9,29.9,17.4,75,56,20,30.25,30.03,7,3,12,0.00
2013-11-3,61.2,49.5,38.7,33.1,29.1,16.9,70,48,18,30.22,29.96,8,4,19,0.00
2013-11-4,60.1,55.3,48.2,46.8,41.7,33.1,76,61,45,30.15,29.94,8,3,11,0.17
2013-11-5,60.4,56.8,48.7,59.3,53.7,45.9,96,90,70,30.16,29.91,8,3,16,0.58
2013-11-6,47.1,39.7,33.4,44.3,31.8,27.3,92,74,50,30.38,29.98,9,4,13,0.15
2013-11-7,57.4,41.4,32.4,31.6,23.3,3.7,84,56,12,30.44,30.36,8,2,11,0.00
2013-11-8,66.2,51.4,33.6,27.7,18.1,5.3,66,31,10,30.37,29.93,9,5,19,0.00
2013-11-9,69.1,53.0,42.6,30.3,21.6,4.8,55,34,10,30.36,30.02,7,2,11,0.00
2013-11-10,61.3,50.0,41.0,26.3,17.0,-0.1,51,30,10,30.46,30.26,7,2,11,0.00
2013-11-11,63.1,47.4,27.0,42.2,28.6,5.6,74,49,29,30.67,30.21,12,5,19,0.00
2013-11-12,38.5,25.2,17.2,7.0,-1.4,-17.2,57,35,10,30.90,30.68,11,3,20,0.00
2013-11-13,52.3,35.7,21.6,4.7,-2.3,-13.9,45,23,10,30.71,30.22,7,4,13,0.00
2013-11-14,56.8,45.0,36.0,11.7,4.8,-4.2,35,20,10,30.23,30.01,9,5,14,0.00
2013-11-15,61.0,50.8,42.3,38.4,24.1,6.6,62,36,19,30.03,29.79,6,3,11,0.00
2013-11-16,70.0,62.8,50.7,52.6,47.7,38.2,70,58,44,29.81,29.49,14,7,24,0.00
2013-11-17,67.6,60.8,46.4,53.4,24.3,-0.4,62,31,10,30.13,29.41,18,8,27,0.00
2013-11-18,61.2,45.8,36.1,26.0,13.0,-6.7,64,32,10,30.34,30.13,6,2,11,0.00
2013-11-19,62.8,50.4,40.3,11.7,4.0,-3.7,30,16,10,30.30,30.04,11,5,18,0.00
2013-11-20,51.3,46.5,40.1,30.4,18.2,-6.2,62,37,10,30.05,29.93,9,4,17,0.04
2013-11-21,50.9,42.2,27.9,38.4,30.2,18.4,72,63,48,30.47,30.02,12,3,16,0.14
2013-11-22,29.7,26.5,23.4,18.2,13.5,9.6,67,57,51,30.66,30.46,0,0,0,0.00
2013-11-23,29.1,23.3,15.3,10.9,-5.4,-23.5,57,31,10,30.82,30.63,0,0,0,0.00
2013-11-24,29.3,20.8,11.5,-4.0,-10.6,-23.5,46,27,10,30.79,30.38,6,1,9,0.00
2013-11-25,40.6,31.9,27.0,11.7,-2.6,-13.0,49,24,10,30.38,30.22,6,3,10,0.00
2013-11-26,39.0,29.7,21.4,15.6,2.6,-16.0,59,35,10,30.45,30.21,12,5,20,0.00
2013-11-27,36.3,25.1,15.8,-1.0,-11.8,-22.0,45,22,10,30.47,30.22,10,3,14,0.00
2013-11-28,44.6,32.8,26.6,3.7,-4.2,-13.9,35,21,10,30.53,30.19,8,4,12,0.00
2013-11-29,54.7,37.1,24.8,6.2,1.8,-5.4,41,25,10,30.53,30.30,7,4,10,0.00
2013-11-30,58.5,43.4,35.6,24.8,13.2,0.6,60,32,10,30.30,30.13,9,2,11,0.00
2013-12-1,61.7,42.8,30.2,29.4,18.3,1.7,69,43,10,30.17,29.93,5,1,7,0.00
2013-12-2,56.1,44.7,35.6,33.2,29.0,23.0,69,55,32,29.93,29.67,6,2,9,0.00
2013-12-3,63.5,48.2,41.5,38.2,32.0,21.4,74,57,20,29.67,29.59,5,2,10,0.00
2013-12-4,45.0,34.7,23.5,36.1,21.6,-1.3,71,59,33,30.09,29.56,9,4,12,0.01
2013-12-5,23.2,17.8,15.6,4.5,-8.9,-16.5,54,30,21,30.42,30.09,11,6,15,0.00
2013-12-6,18.0,14.3,9.5,-15.9,-24.4,-32.4,26,16,10,30.69,30.41,11,6,17,0.00
2013-12-7,21.4,13.0,3.7,-14.2,-22.7,-30.8,40,21,10,30.75,30.41,11,6,15,0.00
2013-12-8,23.9,20.5,17.2,10.3,-0.9,-28.7,58,41,10,30.40,30.03,12,5,16,0.00
2013-12-9,54.3,13.4,9.9,28.6,-9.3,-31.7,52,37,10,30.45,29.29,6,3,11,0.00
2013-12-10,40.3,25.4,12.2,0.5,-12.6,-24.3,34,19,10,29.93,29.81,9,4,17,0.00
2013-12-11,28.9,21.6,10.2,5.7,-12.0,-29.0,43,24,10,30.23,29.83,12,4,18,0.00
2013-12-12,47.1,29.5,12.0,6.7,-12.4,-24.1,35,17,10,30.20,29.78,10,4,17,0.00
2013-12-13,37.4,33.3,28.4,24.3,17.8,6.5,65,53,35,29.78,29.47,4,2,9,0.11
2013-12-14,35.1,26.6,20.8,24.9,11.4,2.8,68,53,39,29.83,29.50,8,1,13,0.02
2013-12-15,52.3,34.8,18.7,8.7,3.0,-8.7,53,31,10,29.83,29.58,6,2,11,0.00
2013-12-16,61.5,41.1,30.0,11.3,3.6,-6.8,41,23,10,29.77,29.57,8,2,12,0.00
2013-12-17,48.0,35.0,25.2,17.4,2.5,-14.3,55,30,10,29.90,29.77,9,2,14,0.00
2013-12-18,64.0,48.2,32.0,6.4,0.1,-11.9,26,14,10,29.84,29.41,15,6,23,0.00
2013-12-19,57.4,54.3,45.1,37.9,27.5,2.0,48,37,12,29.41,29.27,9,4,12,0.00
2013-12-20,44.8,26.0,21.2,24.6,11.3,5.0,61,53,44,29.55,29.32,8,4,14,0.00
2013-12-21,27.9,24.5,21.0,15.2,10.4,5.2,61,54,49,29.52,29.23,8,3,11,0.00
2013-12-22,25.2,21.7,15.6,13.5,5.8,-1.9,61,50,39,29.98,29.34,0,0,0,0.00
2013-12-23,17.1,9.8,3.2,-1.2,-13.5,-21.9,50,34,17,30.22,29.96,0,0,0,0.00
2013-12-24,30.7,17.7,2.1,14.3,-5.8,-20.6,51,36,15,30.19,29.80,0,0,0,0.00
2013-12-25,41.7,32.5,26.4,16.3,9.4,-3.1,56,40,15,29.95,29.84,8,1,13,0.22
2013-12-26,49.5,35.2,24.4,11.6,5.4,-7.9,55,33,10,29.94,29.79,11,3,18,0.04
2013-12-27,56.7,40.1,26.8,15.2,7.1,-7.6,52,30,10,29.94,29.79,6,3,9,0.00
2013-12-28,58.8,45.7,35.4,11.5,2.5,-9.3,34,18,10,29.79,29.51,10,4,17,0.00
2013-12-29,39.7,21.7,15.1,10.4,-6.7,-28.4,36,28,10,29.90,29.56,12,8,21,0.00
2014-1-1,33.8,20.7,8.2,3.0,-4.9,-11.2,43,32,14,29.91,29.63,11,6,17,0.00
2014-1-2,20.3,8.4,1.4,-10.7,-22.1,-33.2,41,25,10,30.08,29.90,8,3,12,0.00